Date,TemperatureHighF,TemperatureAvgF,TemperatureLowF,DewpointHighF,DewpointAvgF,DewpointLowF,HumidityHigh,HumidityAvg,HumidityLow,PressureMaxIn,PressureMinIn,WindSpeedMaxMPH,WindSpeedAvgMPH,GustSpeedMaxMPH,PrecipitationSumIn
2013-3-1,58,44,31,36,30,27,97,63,31,0.00,40.00,7,3,20,0.00
2013-3-2,43,36,29,29,25,21,92,67,45,0.00,40.00,6,4,19,0.00
2013-3-3,57,39,24,29,22,14,90,57,21,0.00,40.00,6,2,16,0.00
2013-3-4,70,53,35,54,42,28,95,68,39,0.00,40.00,7,4,23,0.00
2013-3-5,71,61,49,60,49,33,93,69,34,0.00,40.00,8,4,20,0.00
2013-3-6,60,48,38,33,25,22,68,44,24,0.00,40.00,7,4,16,0.00
2013-3-7,64,47,33,39,32,28,90,60,28,0.00,40.00,6,2,11,0.00
2013-3-8,72,54,37,43,36,29,94,58,20,0.00,40.00,5,2,11,0.00
2013-3-9,74,59,44,57,46,39,90,66,28,0.00,40.00,5,2,14,0.00
2013-3-10,76,67,60,65,61,57,93,82,53,0.00,40.00,8,4,19,0.00
2013-3-11,67,52,43,65,45,35,98,79,44,0.00,40.00,5,4,15,1.19
2013-3-12,66,50,35,39,34,31,98,62,28,0.00,40.00,6,2,14,0.01
2013-3-13,64,52,42,35,26,17,74,42,17,0.00,40.00,8,4,19,0.00
2013-3-14,71,50,35,36,28,21,74,46,19,0.00,40.00,7,3,13,0.00
2013-3-15,78,60,45,47,40,35,87,52,25,0.00,40.00,7,4,16,0.00
2013-3-16,78,64,51,54,50,41,91,63,38,0.00,40.00,7,4,18,0.00
2013-3-17,80,64,53,62,57,52,100,80,47,0.00,40.00,6,2,15,0.00
2013-3-18,85,71,59,68,63,58,100,79,48,0.00,40.00,6,3,18,0.41
2013-3-19,75,62,49,60,42,34,100,55,23,0.00,40.00,8,6,18,0.41
2013-3-20,68,57,48,38,33,24,55,42,21,0.00,40.00,6,4,15,0.00
2013-3-21,65,51,40,41,30,21,76,48,25,0.00,40.00,7,2,12,0.00
2013-3-22,64,57,51,57,48,41,88,73,61,0.00,40.00,5,2,11,0.02
2013-3-23,69,63,60,66,62,57,100,95,87,0.00,40.00,6,3,10,0.12
2013-3-24,66,58,43,66,49,28,100,77,27,0.00,40.00,8,4,21,0.09
2013-3-25,57,44,32,30,24,18,79,50,22,0.00,40.00,7,4,19,0.01
2013-3-26,55,42,29,27,24,21,87,54,27,0.00,40.00,7,3,17,0.00
2013-3-27,64,43,28,30,26,23,91,59,21,0.00,40.00,5,2,12,0.00
2013-3-28,72,64,50,39,33,27,66,35,19,0.00,40.00,3,3,9,0.00
2013-3-29,77,60,41,53,44,37,99,63,27,0.00,40.00,5,2,13,0.00
2013-3-30,77,64,49,58,51,-100,100,72,37,0.00,40.00,6,3,17,0.00
2013-3-31,74,62,55,63,58,54,100,90,63,0.00,40.00,5,2,23,0.26